Location: Brachbach
(49.1847°N, 9.7240°E)
Time: 19:57:20
(UTC+00:00)

CZ-2D R/B - Visible Passes

Search period start: 03 October 2024 00:00
Search period end: 13 October 2024 00:00
Orbit: 596 x 616 km, 97.7° (Epoch: 02 October)

Date Brightness Start Highest point End Pass type
(mag) Time Alt. Az. Time Alt. Az. Time Alt. Az.
03 Oct ? 18:43:59 38° SE 18:45:22 60° ENE 18:49:32 10° N visible
03 Oct ? 20:20:52 15° WSW 20:21:37 16° W 20:24:12 10° NW visible
04 Oct ? 17:21:55 10° ENE 17:23:12 11° NE 17:24:28 10° NE visible
04 Oct ? 18:57:17 50° SSE 18:58:21 81° ENE 19:02:34 10° NNW visible
04 Oct ? 20:34:12 11° W 20:34:47 12° W 20:36:18 10° WNW visible
05 Oct ? 17:33:43 10° E 17:36:00 14° ENE 17:38:18 10° NNE visible
05 Oct ? 19:10:35 58° SSW 19:11:19 75° WSW 19:15:33 10° NNW visible
06 Oct ? 17:46:58 14° E 17:48:48 18° ENE 17:51:43 10° NNE visible
06 Oct ? 19:23:51 52° SW 19:24:17 55° W 19:28:26 10° NNW visible
07 Oct ? 18:00:12 20° E 18:01:35 24° ENE 18:04:58 10° N visible
07 Oct ? 19:37:05 40° WSW 19:37:14 40° W 19:41:15 10° NNW visible
08 Oct ? 18:13:24 27° E 18:14:22 30° ENE 18:18:05 10° N visible
08 Oct ? 19:50:17 30° W 19:50:17 30° W 19:53:57 10° NNW visible
09 Oct ? 18:26:35 38° E 18:27:09 40° ENE 18:31:06 10° N visible
09 Oct ? 20:03:27 23° W 20:03:27 23° W 20:06:32 10° NW visible
10 Oct ? 18:39:43 52° E 18:39:55 53° ENE 18:44:03 10° N visible
10 Oct ? 20:16:36 17° W 20:16:36 17° W 20:18:57 10° NW visible
11 Oct ? 17:17:19 10° ENE 17:17:38 10° NE 17:17:58 10° NE visible
11 Oct ? 18:52:50 71° NE 18:52:50 71° NE 18:56:55 10° N visible
11 Oct ? 20:29:43 13° WNW 20:29:43 13° WNW 20:31:04 10° WNW visible
12 Oct ? 17:29:02 12° ENE 17:30:14 13° ENE 17:32:12 10° NNE visible
12 Oct ? 19:05:55 70° NNW 19:05:55 70° NNW 19:09:43 10° NNW visible
